EW4799 Weather Reports


time (UTC)temp
F
wind
direction
speed
knots
gust
knots
rain 1hr
in
rain 24hr
in
rain mn
in
humidity
%
barometer
mb
20260906120106 52 0 0.0 0.0 0.00 0.00 0.00 84 1016.8
20260906114603 52 0 0.0 0.0 0.00 0.00 0.00 84 1016.6
20260906113057 52 0 0.0 0.0 0.00 0.00 0.00 85 1016.8
20260906111616 53 0 0.0 0.0 0.00 0.00 0.00 85 1016.7
20260906110056 53 0 0.0 0.0 0.00 0.00 0.00 85 1016.7
20260906104559 53 0 0.0 0.0 0.00 0.00 0.00 85 1016.7
20260906103058 53 0 0.0 0.0 0.00 0.00 0.00 85 1016.6
20260906101557 53 0 0.0 0.0 0.00 0.00 0.00 85 1016.7
20260906100058 53 0 0.0 0.0 0.00 0.00 0.00 85 1016.8
20260906094555 53 0 0.0 0.0 0.00 0.00 0.00 85 1016.8
20260906093103 53 0 0.0 0.0 0.00 0.00 0.00 85 1016.7
20260906091604 54 0 0.0 0.0 0.00 0.00 0.00 85 1016.8
20260906090115 54 0 0.0 0.0 0.00 0.00 0.00 86 1016.7
20260906084606 54 0 0.0 0.0 0.00 0.00 0.00 86 1016.8
20260906083100 54 0 0.0 0.0 0.00 0.00 0.00 86 1016.9
20260906081601 54 0 0.0 0.0 0.00 0.00 0.00 86 1017.0
20260906074607 55 0 0.0 0.0 0.00 0.00 0.00 86 1016.8
20260906073108 55 0 0.0 0.0 0.00 0.00 0.00 86 1016.8
20260906071558 55 0 0.0 0.0 0.00 0.00 0.00 86 1016.8
20260906070135 56 0 0.0 0.0 0.00 0.00 0.00 85 1017.0
20260906064556 56 0 0.0 0.9 0.00 0.00 0.00 85 1017.0
20260906063101 56 0 0.0 0.0 0.00 0.00 0.00 84 1017.2
20260906061635 56 0 0.0 0.0 0.00 0.00 0.00 83 1017.2
20260906060109 57 0 0.0 0.0 0.00 0.00 0.00 82 1017.3
20260906054602 58 0 0.0 0.0 0.00 0.00 0.00 81 1017.3
20260906053100 58 0 0.0 0.0 0.00 0.00 0.00 81 1017.3
20260906051602 58 0 0.0 0.0 0.00 0.00 0.00 81 1017.3
20260906050115 59 0 0.0 0.0 0.00 0.00 0.00 80 1017.3
20260906044604 59 0 0.0 0.0 0.00 0.00 0.00 79 1017.4
20260906043111 60 0 0.0 0.0 0.00 0.00 0.00 77 1017.4
20260906041601 61 0 0.0 0.0 0.00 0.00 0.00 76 1017.5
20260906040115 61 0 0.0 0.0 0.00 0.00 0.00 75 1017.5
20260906034559 62 0 0.0 0.0 0.00 0.00 0.00 74 1017.5
20260906033101 63 0 0.0 0.0 0.00 0.00 0.00 71 1017.4
20260906031608 64 0 0.0 0.0 0.00 0.00 0.00 69 1017.2
20260906030106 65 0 0.0 0.0 0.00 0.00 0.00 67 1017.2
20260906024559 66 0 0.0 0.0 0.00 0.00 0.00 64 1017.1
20260906023117 67 0 0.0 0.9 0.00 0.00 0.00 63 1017.1
20260906021603 69 0 0.0 0.0 0.00 0.00 0.00 58 1017.0
20260906020101 72 0 0.0 1.7 0.00 0.00 0.00 49 1017.0
20260906014623 75 162 0.0 2.6 0.00 0.00 0.00 45 1016.8
20260906013057 78 0 0.0 2.6 0.00 0.00 0.00 41 1016.8
20260906011559 80 0 0.0 2.6 0.00 0.00 0.00 39 1016.8
20260906010057 79 0 0.0 1.7 0.00 0.00 0.00 40 1016.8
20260906004614 76 0 0.9 2.6 0.00 0.00 0.00 43 1016.8
20260906003109 74 176 0.9 3.5 0.00 0.00 0.00 45 1016.7
20260906001557 75 158 0.9 2.6 0.00 0.00 0.00 47 1016.7
20260906000106 75 0 0.0 0.9 0.00 0.00 0.00 46 1016.7
20260905234602 77 0 0.9 3.5 0.00 0.00 0.00 42 1016.7
20260905233056 76 160 0.9 4.3 0.00 0.00 0.00 43 1016.8
20260905231557 76 155 0.9 3.5 0.00 0.00 0.00 45 1016.9
20260905230103 75 167 0.0 2.6 0.00 0.00 0.00 46 1017.2
20260905224605 74 0 0.9 2.6 0.00 0.00 0.00 47 1017.4
20260905223101 72 0 0.0 3.5 0.00 0.00 0.00 49 1017.4
20260905221554 70 47 0.0 2.6 0.00 0.00 0.00 52 1017.5
20260905220118 68 68 0.0 2.6 0.00 0.00 0.00 56 1017.7
20260905214600 67 156 0.0 2.6 0.00 0.00 0.00 57 1017.8
20260905213054 67 0 0.0 1.7 0.00 0.00 0.00 60 1017.7
20260905211556 66 179 0.0 1.7 0.00 0.00 0.00 62 1018.0
20260905204555 66 0 0.0 1.7 0.00 0.00 0.00 62 1018.1
20260905203100 66 179 0.0 1.7 0.00 0.00 0.00 62 1018.2
20260905201555 66 157 0.9 3.5 0.00 0.00 0.00 63 1018.3
20260905200101 66 171 0.0 2.6 0.00 0.00 0.00 63 1018.3
20260905194558 65 0 0.9 3.5 0.00 0.00 0.00 64 1018.3
20260905193059 65 167 0.0 3.5 0.00 0.00 0.00 66 1018.4
20260905191603 64 166 0.9 2.6 0.00 0.00 0.00 67 1018.4
20260905190114 64 0 0.9 3.5 0.00 0.00 0.00 67 1018.3
20260905184605 64 168 0.0 3.5 0.00 0.00 0.00 68 1018.4
20260905183119 64 0 0.0 1.7 0.00 0.00 0.00 68 1018.5
20260905181605 63 188 0.0 1.7 0.00 0.00 0.00 69 1018.6
20260905180103 62 0 0.0 1.7 0.00 0.00 0.00 71 1018.8
20260905174606 61 0 0.0 2.6 0.00 0.00 0.00 74 1018.8
20260905173100 61 0 0.0 1.7 0.00 0.00 0.00 73 1018.7
20260905171605 60 227 0.0 0.9 0.00 0.00 0.00 75 1018.5
20260905170104 59 0 0.0 0.9 0.00 0.00 0.00 78 1018.5
20260905164651 59 0 0.0 0.9 0.00 0.00 0.00 79 1018.5
20260905163101 58 0 0.0 0.9 0.00 0.00 0.00 81 1018.4
20260905161559 57 0 0.0 0.0 0.00 0.00 0.00 83 1018.5
20260905160116 57 0 0.0 0.0 0.00 0.00 0.00 84 1018.4
20260905154601 56 0 0.0 0.9 0.00 0.00 0.00 85 1018.4
20260905153106 55 0 0.0 0.0 0.00 0.00 0.00 86 1018.5
20260905151609 54 0 0.0 0.0 0.00 0.00 0.00 82 1018.5
20260905150104 54 0 0.0 0.0 0.00 0.00 0.00 80 1018.2
20260905144603 53 0 0.0 0.0 0.00 0.00 0.00 80 1018.1
20260905143107 52 0 0.0 0.0 0.00 0.00 0.00 80 1018.0
20260905141604 52 0 0.0 0.0 0.00 0.00 0.00 80 1017.9
20260905140111 52 0 0.0 0.0 0.00 0.00 0.00 81 1017.8
20260905134605 52 0 0.0 0.0 0.00 0.00 0.00 81 1017.7
20260905133108 51 0 0.0 0.0 0.00 0.00 0.00 80 1017.7
20260905131611 51 0 0.0 0.0 0.00 0.00 0.00 80 1017.8
20260905130055 51 0 0.0 0.0 0.00 0.00 0.00 80 1017.7
20260905124600 51 0 0.0 0.0 0.00 0.00 0.00 81 1017.7
20260905123102 51 0 0.0 0.0 0.00 0.00 0.00 81 1017.6
20260905121727 51 0 0.0 0.0 0.00 0.00 0.00 81 1017.6
20260905121615 51 0 0.0 0.0 0.00 0.00 0.00 81 1017.6